Tracking 29768 objects as of 3-Oct-2024
HD Live streaming from Space Station
objects crossing your sky now

STARLINK-32224

Track STARLINK-32224 now!
10-day predictions
STARLINK-32224 is classified as:


NORAD ID: 60941
Int'l Code: 2024-155T
Perigee: 453.7 km
Apogee: 455.0 km
Inclination: 53.2 °
Period: 93.5 minutes
Semi major axis: 6825 km
RCS: Unknown
Launch date: August 31, 2024
Source: United States (US)
Launch site: AIR FORCE WESTERN TEST RANGE (AFWTR)
Your satellite tracking list
Your tracking list is empty




NASA's NSSDC Master Catalog

Two Line Element Set (TLE):
1 60941U 24155T   24277.58334491 -.00040376  00000-0 -10045-2 0  9990
2 60941  53.1599  37.6142 0000990  87.5270 302.7938 15.39628298  6027
Source of the keplerian elements: AFSPC